Change the Weather History Date:

Tuesday, December 4, 2012

  Actual Average (KEGE) Record (KEGE)
Temperature  
Mean Temperature 24 °F -  
Max Temperature 41 °F 41 °F 55 °F (1980)
Min Temperature 6 °F 10 °F -9 °F (2004)
Degree Days  
Heating Degree Days 42    
Moisture  
Dew Point 5 °F    
Average Humidity 49    
Maximum Humidity 79    
Minimum Humidity 21    
Precipitation  
Precipitation 0.00 in - - ()
Sea Level Pressure  
Sea Level Pressure 30.40 in    
Wind  
Wind Speed 1 mph (East)    
Max Wind Speed 13 mph    
Max Gust Speed 16 mph    
Averages and records for this station are not official NWS values.
T = Trace of Precipitation, MM = Missing Value Source: NWS Daily Summary

Daily Weather History Graph

Daily Weather History Graph

Search for Another Location

Airport or City:

Trip Planner

Search our weather history database for the weather conditions in past years. The results will help you decide how hot, cold, wet, or windy it might be!

Date:

Astronomy

Dec. 04, 2012 Rise Set
Actual Time 7:11 AM MST 4:40 PM MST
Civil Twilight 6:41 AM MST 5:10 PM MST
Nautical Twilight 6:07 AM MST 5:44 PM MST
Astronomical Twilight 5:34 AM MST 6:16 PM MST
Moon 10:30 PM MST (12/4) 11:07 AM MST (12/4)
Length of Visible Light 10h 28m
Length of Day
9h 28m
Waning Gibbous, 69% of the Moon is Illuminated
Dec 4
Waning Gibbous
Dec 6
Last Quarter
Dec 13
New
Dec 19
First Quarter
Dec 28
Full

Hourly Weather History & Observations

Time (MST) Temp. Windchill Dew Point Humidity Pressure Visibility Wind Dir Wind Speed Gust Speed Precip Events Conditions
12:15 AM 12.2 °F - 3.2 °F 67% 30.37 in - Calm Calm - N/A   Clear
12:35 AM 12.2 °F - 3.2 °F 67% 30.37 in - Calm Calm - N/A   Clear
12:55 AM 12.2 °F - 3.2 °F 67% 30.38 in - Calm Calm - N/A   Clear
1:15 AM 12.2 °F - 3.2 °F 67% 30.37 in - Calm Calm - N/A   Clear
1:55 AM 10.4 °F - 1.4 °F 67% 30.38 in - Calm Calm - N/A   Clear
2:15 AM 10.4 °F - 1.4 °F 67% 30.39 in - Calm Calm - N/A   Clear
2:35 AM 10.4 °F - 3.2 °F 73% 30.40 in - Calm Calm - N/A   Clear
2:55 AM 10.4 °F - 3.2 °F 73% 30.41 in - Calm Calm - N/A   Clear
3:15 AM 10.4 °F - 3.2 °F 73% 30.41 in - Calm Calm - N/A   Clear
3:35 AM 10.4 °F - 1.4 °F 67% 30.40 in - Calm Calm - N/A   Clear
3:55 AM 10.4 °F - 1.4 °F 67% 30.41 in - Calm Calm - N/A   Clear
4:15 AM 10.4 °F - 1.4 °F 67% 30.42 in - Calm Calm - N/A   Clear
4:35 AM 10.4 °F - 3.2 °F 73% 30.42 in - Calm Calm - N/A   Clear
4:55 AM 10.4 °F - 3.2 °F 73% 30.42 in - Calm Calm - N/A   Clear
5:15 AM 10.4 °F - 5.0 °F 79% 30.42 in - Calm Calm - N/A   Clear
5:34 AM 8.6 °F - 1.4 °F 73% 30.43 in - Calm Calm - N/A   Clear
5:55 AM 8.6 °F - -0.4 °F 67% 30.43 in - Calm Calm - N/A   Clear
6:15 AM 10.4 °F - 3.2 °F 73% 30.43 in - Calm Calm - N/A   Clear
6:35 AM 8.6 °F - -0.4 °F 67% 30.44 in - Calm Calm - N/A   Clear
6:55 AM 6.8 °F - -0.4 °F 72% 30.46 in - Calm Calm - N/A   Clear
7:15 AM 6.8 °F - -0.4 °F 72% 30.47 in - Calm Calm - N/A   Clear
7:35 AM 8.6 °F - 1.4 °F 73% 30.48 in - Calm Calm - N/A   Clear
7:55 AM 10.4 °F - 3.2 °F 73% 30.48 in - Calm Calm - N/A   Clear
8:15 AM 10.4 °F - 3.2 °F 73% 30.48 in - Calm Calm - N/A   Clear
8:35 AM 12.2 °F - 3.2 °F 67% 30.49 in - Calm Calm - N/A   Clear
8:55 AM 14.0 °F - 5.0 °F 67% 30.49 in - Calm Calm - N/A   Clear
9:15 AM 15.8 °F - 5.0 °F 62% 30.49 in - Calm Calm - N/A   Clear
9:35 AM 17.6 °F - 5.0 °F 58% 30.49 in - Calm Calm - N/A   Clear
9:54 AM 19.4 °F - 5.0 °F 54% 30.49 in - Calm Calm - N/A   Clear
10:14 AM 21.2 °F - 5.0 °F 50% 30.48 in - Calm Calm - N/A   Clear
10:35 AM 23.0 °F - 5.0 °F 46% 30.47 in - Calm Calm - N/A   Clear
11:15 AM 28.4 °F - 8.6 °F 43% 30.44 in - Calm Calm - N/A   Clear
11:34 AM 30.2 °F - 8.6 °F 40% 30.43 in - Calm Calm - N/A   Clear
11:55 AM 32.0 °F - 6.8 °F 35% 30.43 in - Calm Calm - N/A   Clear
12:15 PM 32.0 °F - 5.0 °F 32% 30.42 in - Calm Calm - N/A   Clear
12:35 PM 33.8 °F - 6.8 °F 32% 30.41 in - Calm Calm - N/A   Scattered Clouds
12:55 PM 33.8 °F - 6.8 °F 32% 30.40 in - Calm Calm - N/A   Mostly Cloudy
1:15 PM 35.6 °F - 6.8 °F 30% 30.39 in - Calm Calm - N/A   Mostly Cloudy
1:35 PM 35.6 °F - 6.8 °F 30% 30.39 in - Calm Calm - N/A   Mostly Cloudy
1:55 PM 35.6 °F - 6.8 °F 30% 30.39 in - Calm Calm - N/A   Overcast
2:15 PM 35.6 °F - 6.8 °F 30% 30.38 in - Calm Calm - N/A   Overcast
2:35 PM 37.4 °F - 5.0 °F 26% 30.37 in - Calm Calm - N/A   Overcast
2:55 PM 41.0 °F 38.0 °F 5.0 °F 23% 30.36 in - ESE 4.6 mph - N/A   Overcast
3:15 PM 41.0 °F - 3.2 °F 21% 30.36 in - Calm Calm - N/A   Overcast
3:35 PM 41.0 °F - 3.2 °F 21% 30.36 in - Calm Calm - N/A   Overcast
3:55 PM 41.0 °F - 3.2 °F 21% 30.36 in - Calm Calm - N/A   Overcast
4:15 PM 41.0 °F 35.8 °F 5.0 °F 23% 30.36 in - ESE 8.1 mph - N/A   Overcast
4:35 PM 37.4 °F 30.8 °F 5.0 °F 26% 30.37 in - East 9.2 mph - N/A   Overcast
4:55 PM 37.4 °F 32.8 °F 5.0 °F 26% 30.38 in - East 5.8 mph - N/A   Overcast
5:15 PM 37.4 °F 32.8 °F 5.0 °F 26% 30.38 in - East 5.8 mph - N/A   Overcast
5:35 PM 37.4 °F 32.8 °F 3.2 °F 24% 30.37 in - SE 5.8 mph - N/A   Mostly Cloudy
5:54 PM 35.6 °F 31.7 °F 5.0 °F 28% 30.37 in - South 4.6 mph - N/A   Scattered Clouds
6:14 PM 33.8 °F 28.6 °F 5.0 °F 30% 30.37 in - West 5.8 mph - N/A   Clear
6:35 PM 33.8 °F 28.6 °F 6.8 °F 32% 30.36 in - West 5.8 mph - N/A   Clear
6:55 PM 32.0 °F - 6.8 °F 35% 30.37 in - Calm Calm - N/A   Clear
7:15 PM 32.0 °F 27.5 °F 5.0 °F 32% 30.37 in - North 4.6 mph - N/A   Clear
7:35 PM 32.0 °F 28.7 °F 8.6 °F 38% 30.37 in - North 3.5 mph - N/A   Clear
7:55 PM 35.6 °F 27.1 °F 8.6 °F 33% 30.37 in - WSW 12.7 mph 16.1 mph N/A   Clear
8:15 PM 35.6 °F 32.8 °F 8.6 °F 33% 30.37 in - NNW 3.5 mph - N/A   Clear
8:35 PM 32.0 °F - 10.4 °F 41% 30.36 in - Calm Calm - N/A   Clear
8:55 PM 30.2 °F 24.3 °F 10.4 °F 44% 30.37 in - NNE 5.8 mph - N/A   Clear
9:15 PM 30.2 °F 26.7 °F 10.4 °F 44% 30.38 in - SE 3.5 mph - N/A   Clear
9:35 PM 30.2 °F 23.4 °F 10.4 °F 44% 30.39 in - East 6.9 mph - N/A   Clear
9:55 PM 30.2 °F 25.4 °F 10.4 °F 44% 30.39 in - North 4.6 mph - N/A   Clear
10:14 PM 30.2 °F 25.4 °F 10.4 °F 44% 30.38 in - East 4.6 mph - N/A   Clear
10:35 PM 30.2 °F 25.4 °F 10.4 °F 44% 30.37 in - East 4.6 mph - N/A   Clear
10:55 PM 30.2 °F 24.3 °F 12.2 °F 47% 30.37 in - East 5.8 mph - N/A   Clear
11:15 PM 28.4 °F 22.2 °F 10.4 °F 47% 30.37 in - East 5.8 mph - N/A   Clear
11:35 PM 30.2 °F 22.6 °F 12.2 °F 47% 30.37 in - East 8.1 mph - N/A   Clear
11:55 PM 30.2 °F 21.3 °F 12.2 °F 47% 30.36 in - East 10.4 mph - N/A   Clear